Time,B instrument,Bx,By,Bz,sigma B,Ion instrument,Status,Tp_par,Tp_perp,carrot,r_sun,clat,clong,earth_he_angle,n_p,vp_x,vp_y,vp_z,vth_p_par,vth_p_perp
1980-12-27 00:00:22,-1,nan,nan,nan,nan,2,4,nan,nan,1703,0.52889013,7.0049906,125.06494,264.64697,nan,nan,nan,nan,nan,nan
1980-12-27 00:01:43,-1,nan,nan,nan,nan,2,4,nan,nan,1703,0.52889901,7.0049381,125.05396,264.64771,nan,nan,nan,nan,nan,nan
1980-12-27 00:03:04,1,14.16,7.22,-6.12,0.545527,2,1,86908.4,312947.0,1703,0.52891672,7.0048332,125.04419,264.64966,25.0635,385.427,-60.8977,18.6245,37.8782,71.8775
1980-12-27 00:04:25,1,13.66,6.4,-7.76,0.942762,2,1,214862.0,299259.0,1703,0.5289256,7.0047817,125.03345,264.65063,35.1182,396.237,-51.076,31.149,59.5577,70.288
1980-12-27 00:05:46,1,15.075,5.85,0.8,2.4268,2,1,160864.0,418491.0,1703,0.52893448,7.0047293,125.02271,264.65161,39.2668,385.265,-50.329,8.40424,51.5332,83.1191
1980-12-27 00:07:07,-1,nan,nan,nan,nan,1,4,nan,nan,1703,0.52895224,7.0046244,125.01294,264.65356,nan,nan,nan,nan,nan,nan
1980-12-27 00:08:28,-1,nan,nan,nan,nan,1,4,nan,nan,1703,0.52896112,7.0045729,124.99829,264.65454,nan,nan,nan,nan,nan,nan
1980-12-27 00:09:49,1,13.3333,10.2167,-4.26667,0.715891,1,1,96796.7,207376.0,1703,0.52897,7.0045204,124.98755,264.65552,18.7959,397.006,-79.1854,16.7763,39.975,58.5109
1980-12-27 00:11:10,1,15.7857,2.61429,2.82857,1.51994,1,1,86253.5,229708.0,1703,0.52898777,7.0044155,124.97778,264.65747,17.9486,385.31,-43.1627,-11.457,37.7352,61.5809
1980-12-27 00:12:31,1,15.0375,7.3875,-0.35,0.889347,1,1,93435.6,231502.0,1703,0.52899665,7.004364,124.96704,264.65845,19.0568,391.515,-75.1423,-0.82717,39.2748,61.821
1980-12-27 00:13:52,1,15.6286,6.18571,1.05714,1.45111,1,1,98342.6,220063.0,1703,0.52900553,7.0043116,124.9563,264.65942,18.339,393.579,-67.0117,-16.1766,40.2929,60.2743
1980-12-27 00:15:13,1,15.775,4.2,-3.625,2.34387,1,1,116963.0,238247.0,1703,0.52902329,7.0042076,124.94653,264.66138,20.0719,385.764,-53.2395,7.72738,43.9422,62.715
1980-12-27 00:16:34,1,16.9857,1.27143,-2.02857,1.0196,1,1,91354.6,240967.0,1703,0.52903217,7.0041552,124.93188,264.66235,20.0883,386.386,-39.9405,4.90599,38.835,63.072
1980-12-27 00:17:55,1,16.7857,-2.95714,-0.857143,0.863784,1,1,76795.3,241867.0,1703,0.52904105,7.0041027,124.92114,264.66333,19.246,385.993,-25.6547,0.359316,35.6062,63.1897
1980-12-27 00:19:16,1,16.7143,-1.35714,-0.114286,0.84973,1,1,89740.9,233234.0,1703,0.52905875,7.0039988,124.91138,264.66528,18.8804,384.626,-36.1051,-1.70754,38.4905,62.0518
1980-12-27 00:21:58,1,13.15,-10.075,-3.0,0.556215,2,1,87075.6,409166.0,1703,0.52907652,7.0038939,124.88989,264.66724,41.3624,379.491,-10.6722,1.10392,37.9146,82.1879
1980-12-27 00:23:19,1,13.0,-9.425,-4.9,0.637868,2,1,453508.0,585224.0,1703,0.52909428,7.0037899,124.88013,264.66919,74.4264,371.571,16.372,35.1293,86.5267,98.2922
1980-12-27 00:24:40,1,13.15,-9.475,-5.3,0.916174,2,1,231293.0,481772.0,1703,0.52910316,7.0037374,124.86938,264.67017,52.6963,398.184,15.5509,10.0992,61.793,89.1823
1980-12-27 00:26:01,-1,nan,nan,nan,nan,2,4,nan,nan,1703,0.52912092,7.0036325,124.85571,264.67212,nan,nan,nan,nan,nan,nan
1980-12-27 00:27:22,1,15.94,-3.78,-1.76,1.66445,2,1,159075.0,261590.0,1703,0.5291298,7.003581,124.84497,264.6731,39.7338,370.212,-21.0341,-0.689505,51.2458,65.7156
1980-12-27 00:28:43,1,13.975,-7.75,-5.75,0.672216,2,1,217543.0,653665.0,1703,0.52913868,7.0035286,124.83423,264.67407,60.1922,375.644,-10.6044,-7.07588,59.9281,103.881
1980-12-27 00:30:04,-1,nan,nan,nan,nan,2,4,nan,nan,1703,0.52915645,7.0034246,124.82446,264.67603,nan,nan,nan,nan,nan,nan
1980-12-27 00:31:25,1,14.0,-8.24,-4.28,0.887694,2,1,143895.0,363791.0,1703,0.52916527,7.0033722,124.81372,264.677,40.5532,388.31,5.81999,3.1322,48.7394,77.4968
1980-12-27 00:32:46,1,15.64,-5.88,-1.68,1.74631,2,1,227809.0,312906.0,1703,0.52917415,7.0033197,124.80298,264.67798,49.3136,369.767,-12.6766,1.09548,61.3259,71.8728
1980-12-27 00:34:07,1,13.86,-5.28,-9.68,0.577581,2,1,144760.0,416734.0,1703,0.52919191,7.0032158,124.78931,264.67993,41.979,386.927,-3.68525,22.7643,48.8857,82.9445
1980-12-27 00:35:28,1,15.6,-1.675,-7.9,1.50727,2,1,125711.0,225211.0,1703,0.52920079,7.0031633,124.77856,264.68091,25.2272,383.05,-11.9311,18.5546,45.556,60.9751
1980-12-27 00:36:49,1,16.0,-1.825,-7.4,0.426468,2,1,265899.0,533720.0,1703,0.52920967,7.0031109,124.76782,264.68188,60.6015,376.497,-30.639,19.051,66.2546,93.8673
1980-12-27 00:38:10,1,11.94,-9.18,-8.88,0.51923,2,1,131957.0,340218.0,1703,0.52922744,7.0030069,124.75806,264.68384,32.2312,404.372,12.6185,28.4729,46.6738,74.944
1980-12-27 00:39:31,1,12.28,-7.88,-9.92,1.84954,2,1,232182.0,1296070.0,1703,0.52923632,7.0029545,124.74731,264.68481,108.771,365.34,16.4011,-2.08289,61.9116,146.276
1980-12-27 00:40:52,1,14.74,-5.0,-8.36,0.892637,2,1,129442.0,340167.0,1703,0.5292452,7.002902,124.73657,264.68579,32.6772,398.821,7.36473,34.4293,46.227,74.9383
1980-12-27 00:42:13,1,14.48,-4.94,-8.8,1.47648,2,1,95416.5,360531.0,1703,0.52926296,7.0027981,124.7229,264.68774,29.9004,378.952,7.48909,16.43,39.689,77.1488
1980-12-27 00:43:34,1,13.125,-5.5,-10.9,0.722409,2,1,221794.0,322715.0,1703,0.52927184,7.0027456,124.71216,264.68872,50.5012,377.56,11.0387,32.4081,60.5108,72.9906
1980-12-27 00:44:55,1,13.56,-2.84,-11.2,0.844275,2,1,235559.0,284817.0,1703,0.52928072,7.0026932,124.70142,264.6897,31.1215,389.649,-16.4811,36.2905,62.3602,68.5711
1980-12-27 00:46:16,1,13.46,-1.62,-11.0,0.379473,2,1,174869.0,355229.0,1703,0.52929842,7.0025892,124.69165,264.69165,40.6574,390.545,-22.6784,25.7813,53.7296,76.5794
1980-12-27 00:47:37,1,13.6,0.18,-11.72,0.981428,2,1,132907.0,358955.0,1703,0.52930731,7.0025368,124.68091,264.69263,42.6901,380.146,-16.9959,30.3356,46.8416,76.98
1980-12-27 00:48:58,-1,nan,nan,nan,nan,2,4,nan,nan,1703,0.52931619,7.0024843,124.67017,264.6936,nan,nan,nan,nan,nan,nan
1980-12-27 00:50:19,1,14.4,-0.78,-10.4,0.365513,2,1,187436.0,337990.0,1703,0.52933395,7.0023804,124.6604,264.69556,45.0868,384.036,-17.141,35.1383,55.6268,74.6981
1980-12-27 00:51:40,1,13.4,-2.26,-11.88,0.532917,2,1,158240.0,494002.0,1703,0.52934283,7.0023279,124.64575,264.69653,44.1414,392.328,-9.27211,39.5794,51.1112,90.3072
1980-12-27 00:53:01,1,14.6,-0.08,-11.0,0.984683,2,1,345300.0,688488.0,1703,0.52936059,7.002224,124.63599,264.69849,81.5878,371.273,-6.91113,23.7283,75.5016,106.612
1980-12-27 00:54:22,1,13.3,-1.85,-12.2,0.917878,2,1,62563.0,235842.0,1703,0.52936947,7.0021715,124.62524,264.69946,25.13,389.539,2.1618,20.4034,32.1378,62.3977
1980-12-27 00:55:43,1,11.225,-5.125,-13.2,0.688295,2,1,189264.0,445261.0,1703,0.52937835,7.0021191,124.6145,264.70044,44.2049,403.323,-3.4733,50.2359,55.8975,85.7364
1980-12-27 00:57:04,1,12.96,-6.68,-10.6,0.544059,2,1,122193.0,413686.0,1703,0.52939612,7.0020151,124.60474,264.70239,33.9098,386.881,5.741,26.6852,44.9138,82.6406
1980-12-27 00:58:25,1,10.875,-7.7,-11.8,1.27549,2,1,106714.0,272701.0,1703,0.529405,7.0019627,124.59399,264.70337,32.0324,385.478,-11.9897,16.7067,41.9729,67.0967
1980-12-27 00:59:46,1,14.15,-5.15,-9.05,0.634429,2,1,87064.0,402717.0,1703,0.52941388,7.0019102,124.57935,264.70435,35.0695,386.757,-6.81948,25.5374,37.912,81.5376
1980-12-27 01:01:07,1,14.3,-8.125,-6.9,0.878564,2,1,45137.8,302613.0,1703,0.52943158,7.0018063,124.56934,264.70605,24.3539,379.699,-5.05577,13.424,27.2978,70.6808
1980-12-27 01:02:28,1,12.65,-9.425,-7.75,1.03047,2,1,124818.0,244052.0,1703,0.52944046,7.0017529,124.55859,264.70703,27.1106,401.976,3.72153,31.8152,45.3937,63.4745
1980-12-27 01:03:49,1,12.425,-9.925,-9.15,0.215058,2,1,156217.0,291975.0,1703,0.52944934,7.0017004,124.54785,264.70801,33.8066,386.907,14.4129,26.9301,50.7834,69.4273
1980-12-27 01:05:10,1,12.025,-9.225,-9.2,0.999375,2,1,120643.0,227626.0,1703,0.52946711,7.0015955,124.53809,264.70996,28.7736,394.12,9.64309,21.7315,44.6282,61.3012
1980-12-27 01:06:31,-1,nan,nan,nan,nan,1,4,nan,nan,1703,0.52947599,7.001543,124.52734,264.71094,nan,nan,nan,nan,nan,nan
1980-12-27 01:07:52,-1,nan,nan,nan,nan,1,4,nan,nan,1703,0.52948487,7.0014906,124.5127,264.71191,nan,nan,nan,nan,nan,nan
1980-12-27 01:09:13,-1,nan,nan,nan,nan,1,4,nan,nan,1703,0.52950257,7.0013857,124.50293,264.71387,nan,nan,nan,nan,nan,nan
1980-12-27 01:10:34,1,12.9571,-11.1571,-2.17143,0.795395,1,1,70674.3,194142.0,1703,0.52951145,7.0013332,124.49219,264.71484,16.0942,397.191,14.4177,11.7587,34.1577,56.6132
1980-12-27 01:11:55,1,13.7,-8.87143,-4.68571,0.463351,1,1,78883.1,241717.0,1703,0.52952033,7.0012808,124.48145,264.71582,19.3321,390.17,3.92627,18.4257,36.0869,63.1701
1980-12-27 01:13:16,1,13.5714,-7.77143,-6.48571,1.0349,1,1,80381.0,218431.0,1703,0.52953809,7.0011759,124.47168,264.71777,18.3618,391.297,3.53064,26.5894,36.4279,60.0503
1980-12-27 01:14:37,1,13.7625,-8.5625,-5.6,1.59521,1,1,72621.7,203085.0,1703,0.52954698,7.0011234,124.46094,264.71875,17.0532,393.04,9.79291,22.6166,34.6251,57.9024
1980-12-27 01:15:58,1,13.8571,-9.85714,-2.08571,0.985818,1,1,63853.2,210255.0,1703,0.52955586,7.001071,124.4502,264.71973,17.4549,394.14,12.7876,21.3378,32.4675,58.9156
1980-12-27 01:17:19,1,13.7286,-9.71429,-3.11429,1.00509,1,1,79555.4,209581.0,1703,0.52957362,7.0009661,124.43652,264.72168,18.5012,393.929,11.6866,6.24608,36.2404,58.8212
1980-12-27 01:18:40,1,10.5429,-11.0857,-7.28571,0.536428,1,1,74603.7,193473.0,1703,0.52958244,7.0009136,124.42578,264.72266,17.2488,401.263,16.6273,25.8959,35.0944,56.5156
1980-12-27 01:21:22,1,8.82,-12.82,-5.92,0.533667,2,1,145913.0,478733.0,1703,0.52960908,7.0007563,124.40503,264.72534,45.6515,398.771,24.6477,6.82771,49.0801,88.9006
1980-12-27 01:22:43,1,9.02,-12.98,-4.72,0.576888,2,1,123210.0,344234.0,1703,0.52961797,7.0007038,124.39429,264.72632,33.5671,395.796,19.7801,7.50242,45.1005,75.385
1980-12-27 01:24:04,1,13.82,-5.5,-8.2,0.655439,2,1,111131.0,379207.0,1703,0.52963573,7.0005989,124.38452,264.72827,31.8291,387.398,5.83899,16.002,42.8328,79.1218
1980-12-27 01:25:25,1,13.12,-7.0,-7.28,0.753127,2,1,143800.0,235573.0,1703,0.52964461,7.0005465,124.36987,264.72925,30.2183,383.118,-19.8741,13.273,48.7233,62.3621
1980-12-27 01:26:46,1,12.62,-8.32,-6.72,0.839524,2,1,216766.0,598368.0,1703,0.52965349,7.000494,124.35913,264.73022,61.0886,381.748,-1.82665,16.9889,59.8209,99.3899
1980-12-27 01:28:07,1,12.02,-9.42,-5.2,0.647457,2,1,154900.0,243686.0,1703,0.52967119,7.0003891,124.34937,264.73218,31.1612,391.702,12.9326,19.6289,50.5689,63.4269
1980-12-27 01:29:28,1,9.14,-12.92,-5.52,1.42324,2,1,46044.0,167794.0,1703,0.52968007,7.0003366,124.33862,264.73315,16.2703,414.337,35.2415,18.8568,27.5705,52.6316
1980-12-27 01:30:49,1,14.7,-6.8,0.35,0.756637,2,1,311418.0,219981.0,1703,0.52968895,7.0002842,124.32788,264.73413,34.1813,379.687,-1.30574,-0.79484,71.7017,60.263
1980-12-27 01:32:10,-1,nan,nan,nan,nan,2,4,nan,nan,1703,0.52970672,7.0001783,124.31812,264.73608,nan,nan,nan,nan,nan,nan
1980-12-27 01:33:31,1,14.8,-4.58,-1.4,2.9996,2,1,233853.0,265691.0,1703,0.5297156,7.0001259,124.30347,264.73706,34.6151,385.123,-41.9974,15.2046,62.134,66.2287
1980-12-27 01:34:52,1,15.175,-5.125,-4.9,0.699107,2,1,705906.0,481450.0,1703,0.52972448,7.0000734,124.29272,264.73804,80.2821,365.212,20.6262,7.90849,107.952,89.1525
1980-12-27 01:36:13,1,11.86,-9.02,-6.04,0.567803,2,1,137317.0,466828.0,1703,0.52974218,6.9999685,124.28296,264.73999,38.963,389.175,17.0244,9.5782,47.6124,87.7882
1980-12-27 01:37:34,-1,nan,nan,nan,nan,2,4,nan,nan,1703,0.52975106,6.9999161,124.27222,264.74097,nan,nan,nan,nan,nan,nan
1980-12-27 01:38:55,1,13.1,-6.375,-6.55,0.685109,2,1,104368.0,508555.0,1703,0.52975994,6.9998636,124.26147,264.74194,37.3737,376.559,0.181962,11.3894,41.5089,91.6277
1980-12-27 01:40:16,1,5.88,-14.38,-2.72,0.959583,2,1,193851.0,242063.0,1703,0.52977771,6.9997587,124.25171,264.7439,23.2548,416.462,30.8104,15.7227,56.5707,63.2153
1980-12-27 01:41:37,-1,nan,nan,nan,nan,2,4,nan,nan,1703,0.52978659,6.9997063,124.24072,264.74463,nan,nan,nan,nan,nan,nan
1980-12-27 01:42:58,1,-0.08,-15.54,-3.24,0.845222,2,1,629123.0,435716.0,1703,0.52979547,6.9996538,124.22607,264.74561,65.5414,399.936,39.0412,8.46741,101.912,84.8124
1980-12-27 01:44:19,1,3.14,-14.74,-4.44,1.67547,2,1,171460.0,615112.0,1703,0.52981317,6.9995489,124.21631,264.74756,68.5232,392.037,36.1902,-15.4869,53.2034,100.771
1980-12-27 01:45:40,-1,nan,nan,nan,nan,2,4,nan,nan,1703,0.52982205,6.9994965,124.20557,264.74854,nan,nan,nan,nan,nan,nan
1980-12-27 01:47:01,1,10.74,-8.58,-5.56,1.89905,2,1,83214.1,487707.0,1703,0.52983981,6.9993916,124.1958,264.75049,46.7298,374.806,23.3398,0.736576,37.0644,89.7299
1980-12-27 01:48:22,1,8.36,-9.28,2.48,4.50795,2,1,170530.0,325058.0,1703,0.52984869,6.9993391,124.18506,264.75146,31.3594,410.619,39.2835,-18.2223,53.0589,73.2552
1980-12-27 01:49:43,1,9.24,-11.6,0.44,0.894874,2,1,167844.0,461248.0,1703,0.52985758,6.9992867,124.17432,264.75244,46.7761,384.495,19.1558,-13.9076,52.6394,87.262
1980-12-27 01:51:04,1,3.36,-15.06,-0.84,1.30353,2,1,112128.0,391452.0,1703,0.52987534,6.9991817,124.16064,264.75439,30.5523,419.416,37.9045,-10.2669,43.0245,80.3891
1980-12-27 01:52:25,1,5.68,-14.02,1.44,1.80377,2,1,347176.0,486565.0,1703,0.52988416,6.9991293,124.1499,264.75537,61.7211,412.498,22.3459,-13.2362,75.7064,89.6248
1980-12-27 01:53:46,1,10.775,-9.425,-5.95,1.37886,2,1,214736.0,261255.0,1703,0.52989304,6.9990768,124.13916,264.75635,34.4925,378.691,23.3222,10.9066,59.5403,65.6735
1980-12-27 01:55:07,1,12.6,-6.625,-4.85,0.724137,2,1,248199.0,367682.0,1703,0.5299108,6.9989719,124.12939,264.7583,50.4032,363.776,-7.52806,14.2003,64.0115,77.9102
1980-12-27 01:56:28,1,13.48,-7.06,-1.08,0.910824,2,1,117211.0,398162.0,1703,0.52991968,6.9989195,124.11865,264.75928,35.5906,373.557,-7.57187,-2.91653,43.9888,81.0751
1980-12-27 01:57:49,1,10.28,-11.06,1.88,1.01666,2,1,109478.0,340823.0,1703,0.52992857,6.998867,124.10791,264.76025,35.0781,386.233,18.8682,-27.7465,42.5129,75.0106
1980-12-27 01:59:10,1,8.74,-12.16,-3.84,1.11678,2,1,142191.0,255586.0,1703,0.52994633,6.9987621,124.09424,264.76221,30.8024,390.486,23.2744,-4.00664,48.45,64.9571
1980-12-27 02:00:31,-1,nan,nan,nan,nan,2,4,nan,nan,1703,0.52995521,6.9987097,124.0835,264.76318,nan,nan,nan,nan,nan,nan
1980-12-27 02:01:52,1,8.56,-11.24,-5.72,1.01311,2,1,122188.0,157330.0,1703,0.52996403,6.9986563,124.07251,264.76392,20.4004,412.536,36.1734,-0.969777,44.9131,50.964
1980-12-27 02:03:13,1,-2.18,-13.3,3.44,5.18073,2,1,114218.0,357886.0,1703,0.52998179,6.9985514,124.06274,264.76587,27.979,438.955,44.7623,5.60137,43.4235,76.8653
1980-12-27 02:04:34,1,2.65,-14.25,-2.3,5.20657,2,1,193538.0,229091.0,1703,0.52999067,6.998498,124.052,264.76685,25.4586,425.396,40.795,13.4991,56.5251,61.4981
1980-12-27 02:05:55,-1,nan,nan,nan,nan,1,4,nan,nan,1703,0.52999955,6.9984455,124.04126,264.76782,nan,nan,nan,nan,nan,nan
1980-12-27 02:07:16,-1,nan,nan,nan,nan,1,4,nan,nan,1703,0.53001726,6.9983397,124.03149,264.76978,nan,nan,nan,nan,nan,nan
1980-12-27 02:08:37,-1,nan,nan,nan,nan,1,4,nan,nan,1703,0.53002614,6.9982872,124.01685,264.77075,nan,nan,nan,nan,nan,nan
1980-12-27 02:09:58,1,6.31429,-11.5,-10.4286,0.612122,1,1,82581.4,213759.0,1703,0.53003502,6.9982347,124.0061,264.77173,19.3231,410.836,15.2562,44.7941,36.9232,59.4046
1980-12-27 02:11:19,1,6.975,-9.175,-11.5,1.2505,1,1,76552.8,224445.0,1703,0.53005278,6.9981289,123.99634,264.77368,19.2028,406.78,13.8192,42.5312,35.5499,60.8714
1980-12-27 02:12:40,1,4.74286,-11.2714,-10.3714,1.59757,1,1,83548.4,220956.0,1703,0.5300616,6.9980764,123.9856,264.77466,18.9584,415.357,15.5829,48.1258,37.1387,60.3964
1980-12-27 02:14:01,1,5.27143,-10.5571,-11.4571,1.44363,1,1,114210.0,238039.0,1703,0.53007936,6.9979706,123.97583,264.77661,19.1233,422.814,25.8928,38.3586,43.422,62.6877
1980-12-27 02:15:22,1,10.7143,-5.37143,-10.8571,2.09557,1,1,80554.9,203714.0,1703,0.53008825,6.9979181,123.96509,264.77759,17.5872,397.413,-2.16759,49.8439,36.4673,57.9921
1980-12-27 02:16:43,1,7.7625,-10.3375,-10.275,1.73106,1,1,78036.3,216512.0,1703,0.53009713,6.9978647,123.95044,264.77856,18.5916,402.135,12.4352,46.3529,35.8927,59.7858
1980-12-27 02:18:04,1,6.68571,-11.4714,-9.85714,0.834951,1,1,79732.5,200839.0,1703,0.53011483,6.9977598,123.94067,264.78052,16.9454,406.69,23.6411,32.456,36.2807,57.5814
1980-12-27 02:19:25,-1,nan,nan,nan,nan,1,4,nan,nan,1703,0.53012371,6.9977074,123.92993,264.78149,nan,nan,nan,nan,nan,nan
1980-12-27 02:22:07,1,-1.76,-15.54,-2.76,0.864407,2,1,103318.0,228992.0,1703,0.53015029,6.9975491,123.90918,264.78418,22.7606,441.268,49.415,-0.735039,41.2996,61.4848
1980-12-27 02:23:28,-1,nan,nan,nan,nan,2,4,nan,nan,1703,0.53015918,6.9974957,123.89844,264.78516,nan,nan,nan,nan,nan,nan
1980-12-27 02:24:49,1,-3.1,-13.58,6.44,1.2182,2,1,101274.0,206182.0,1703,0.53016806,6.9974432,123.88379,264.78613,20.2624,465.998,36.5189,-23.4002,40.8891,58.3422
1980-12-27 02:26:10,1,3.8,-15.46,-2.04,0.696276,2,1,84726.3,346903.0,1703,0.53018582,6.9973373,123.87402,264.78809,26.926,416.222,37.9622,1.60622,37.3996,75.6766
1980-12-27 02:27:31,1,4.84,-14.7,-5.04,0.502792,2,1,77681.8,287385.0,1703,0.5301947,6.9972849,123.86328,264.78906,22.8954,416.634,35.9389,10.7834,35.8111,68.8795
1980-12-27 02:28:52,1,5.02,-10.44,-12.6,1.18491,2,1,53864.4,263443.0,1703,0.53020352,6.9972324,123.85254,264.79004,23.4539,412.552,17.0479,43.616,29.8201,65.9479
1980-12-27 02:30:13,1,11.1,-11.1,-2.8,1.14237,2,1,217941.0,323035.0,1703,0.53022128,6.9971266,123.84277,264.79199,39.2409,384.423,22.0331,10.7884,59.9829,73.0269
1980-12-27 02:31:34,1,9.575,-9.675,-9.8,0.942735,2,1,86034.8,251057.0,1703,0.53023016,6.9970741,123.83203,264.79297,24.5319,391.763,14.1903,22.2918,37.6873,64.379
1980-12-27 02:32:55,1,12.66,-2.96,-8.76,3.57927,2,1,122923.0,369836.0,1703,0.53023905,6.9970207,123.82129,264.79395,36.0899,377.255,-2.28358,31.9606,45.0479,78.138
1980-12-27 02:34:16,1,9.55,-10.175,-8.2,1.06507,2,1,73863.1,205465.0,1703,0.53025675,6.9969158,123.80762,264.7959,23.9668,392.653,22.3973,13.9033,34.9198,58.2408
1980-12-27 02:35:37,1,7.35,-10.9,-9.7,0.61441,2,1,146799.0,496317.0,1703,0.53026563,6.9968624,123.79688,264.79688,40.4006,386.156,27.0981,8.191,49.2288,90.5185
1980-12-27 02:36:58,1,8.36,-8.38,-11.2,1.24097,2,1,85016.7,321346.0,1703,0.53027451,6.99681,123.78613,264.79785,29.8252,396.602,19.2572,25.6403,37.4636,72.8357
1980-12-27 02:38:19,1,7.38,-5.14,-14.08,1.37899,2,1,303895.0,129332.0,1703,0.53029227,6.9967051,123.77637,264.7998,27.5713,391.054,-7.17683,58.5113,70.8304,46.2073
1980-12-27 02:39:40,1,10.6,-6.66,-7.52,0.944458,2,1,180881.0,335386.0,1703,0.53030109,6.9966516,123.76563,264.80078,39.6537,366.474,4.23716,36.9911,54.6455,74.4098
1980-12-27 02:41:01,1,11.68,-3.96,-9.92,0.854166,2,1,75259.7,482217.0,1703,0.53031886,6.9965467,123.75562,264.80249,39.9803,378.64,-4.9441,28.9968,35.2484,89.2235
1980-12-27 02:42:22,-1,nan,nan,nan,nan,2,4,nan,nan,1703,0.53032774,6.9964933,123.74097,264.80347,nan,nan,nan,nan,nan,nan
1980-12-27 02:43:43,1,10.04,-7.66,-9.68,0.538888,2,1,296007.0,585410.0,1703,0.53033662,6.9964409,123.73022,264.80444,70.316,356.503,-7.84695,24.2902,69.9051,98.3078
1980-12-27 02:45:04,-1,nan,nan,nan,nan,2,4,nan,nan,1703,0.53035432,6.996335,123.72046,264.8064,nan,nan,nan,nan,nan,nan
1980-12-27 02:46:25,1,11.975,-5.35,-9.0,0.386491,2,1,287250.0,583087.0,1703,0.5303632,6.9962826,123.70972,264.80737,62.7959,367.59,1.38141,16.3447,68.8633,98.1125
1980-12-27 02:47:46,1,10.82,-7.42,-9.24,0.691086,2,1,75501.3,258544.0,1703,0.53037208,6.9962301,123.69897,264.80835,25.6784,377.588,9.55039,27.6472,35.3049,65.3319
1980-12-27 02:49:07,1,10.725,-8.85,-7.3,2.1058,2,1,90559.8,327772.0,1703,0.53038985,6.9961243,123.68921,264.8103,31.4448,388.713,17.9574,15.3535,38.6657,73.5603
1980-12-27 02:50:28,1,13.05,-3.125,-9.3,0.44088,2,1,59012.5,374285.0,1703,0.53039867,6.9960718,123.67456,264.81128,32.0052,368.423,-8.66007,18.968,31.2126,78.6066
1980-12-27 02:51:49,1,14.0,-1.075,-8.55,0.865664,2,1,128734.0,250908.0,1703,0.53040755,6.9960184,123.66382,264.81226,34.735,375.242,-7.92531,20.0527,46.1003,64.3598
1980-12-27 02:53:10,-1,nan,nan,nan,nan,2,4,nan,nan,1703,0.53042531,6.9959135,123.65405,264.81421,nan,nan,nan,nan,nan,nan
1980-12-27 02:54:31,1,14.55,0.35,-6.3,0.430116,2,1,154513.0,323493.0,1703,0.53043419,6.9958601,123.64331,264.81519,36.5953,375.245,-11.2554,19.429,50.5057,73.0786
1980-12-27 02:55:52,1,14.325,5.525,-3.55,0.6255,2,1,170812.0,340260.0,1703,0.53044307,6.9958076,123.63257,264.81616,36.01,367.649,-43.6009,-1.71204,53.1027,74.9485
1980-12-27 02:57:13,1,14.5,-2.55,-5.85,1.11803,2,1,119131.0,258364.0,1703,0.53046077,6.9957027,123.6228,264.81812,26.6601,375.905,-17.8915,15.6477,44.3475,65.3092
1980-12-27 02:58:34,1,15.3,-1.075,-5.5,0.420565,2,1,282491.0,396940.0,1703,0.53046966,6.9956493,123.60815,264.81909,50.3431,370.385,-32.6049,2.89165,68.2905,80.9506
1980-12-27 02:59:55,1,15.2,-2.8,-3.9,0.360555,2,1,58366.5,219392.0,1703,0.53047854,6.9955969,123.59741,264.82007,28.4466,373.194,-20.3258,-1.26091,31.0413,60.1823
1980-12-27 03:01:16,1,14.1,-5.4,-4.05,0.890225,2,1,70106.1,333486.0,1703,0.53049624,6.995491,123.5874,264.82178,34.3501,382.49,-6.16807,6.04636,34.0201,74.1988
1980-12-27 03:02:37,1,13.44,-4.26,-5.56,2.60446,2,1,186278.0,274363.0,1703,0.53050512,6.9954376,123.57666,264.82275,29.3764,410.055,37.5086,15.7849,55.4547,67.3008
1980-12-27 03:03:58,1,7.2,-13.36,-1.92,0.758947,2,1,303935.0,499522.0,1703,0.530514,6.9953852,123.56592,264.82373,58.8593,397.744,26.0343,0.950253,70.835,90.8104
1980-12-27 03:05:19,1,7.64,-13.04,-2.32,0.523832,2,1,533077.0,389143.0,1703,0.5305317,6.9952793,123.55615,264.82568,68.2366,367.757,35.4811,7.7179,93.8108,80.1516
1980-12-27 03:06:40,1,7.3,-12.95,-3.3,0.981071,2,1,152691.0,244598.0,1703,0.53054059,6.9952259,123.54541,264.82666,29.2165,396.656,31.7303,8.73519,50.207,63.5455
1980-12-27 03:08:01,-1,nan,nan,nan,nan,1,4,nan,nan,1703,0.53055835,6.99512,123.53174,264.82861,nan,nan,nan,nan,nan,nan
1980-12-27 03:09:22,-1,nan,nan,nan,nan,1,4,nan,nan,1703,0.53056717,6.9950666,123.521,264.82959,nan,nan,nan,nan,nan,nan
1980-12-27 03:10:43,1,8.95714,-12.2429,-1.2,0.514682,1,1,67780.7,200009.0,1703,0.53057605,6.9950142,123.51025,264.83057,17.8581,394.888,27.885,2.64045,33.4511,57.4623
1980-12-27 03:12:04,1,7.57143,-12.7429,-3.77143,1.97288,1,1,81064.6,189500.0,1703,0.53059381,6.9949083,123.50049,264.83252,18.403,402.189,33.0989,3.32386,36.5825,55.9323
1980-12-27 03:13:25,1,10.8143,-9.78571,-5.71429,0.610119,1,1,64537.7,210315.0,1703,0.53060263,6.9948549,123.48975,264.8335,19.3206,378.439,12.7922,26.377,32.6411,58.9241
1980-12-27 03:14:46,1,11.6667,-9.51667,-3.7,0.535672,1,1,69868.3,179054.0,1703,0.53061152,6.9948025,123.479,264.83447,16.4324,382.337,17.6877,18.4054,33.9624,54.3688
1980-12-27 03:16:07,1,12.4167,-8.35,-4.86667,0.556277,1,1,67105.7,195342.0,1703,0.53062928,6.9946957,123.46509,264.83618,17.8385,377.723,11.5285,15.5557,33.2841,56.7879
1980-12-27 03:17:28,1,11.8333,-8.5,-6.33333,0.676593,1,1,70986.6,180009.0,1703,0.5306381,6.9946432,123.45435,264.83716,17.5685,380.219,10.0814,27.3893,34.2331,54.5136
1980-12-27 03:18:49,1,11.8333,-9.33333,-4.83333,0.962635,1,1,73192.2,197800.0,1703,0.53064698,6.9945898,123.4436,264.83813,18.5319,380.42,15.5726,12.3389,34.7608,57.1441
1980-12-27 03:20:09,-1,nan,nan,nan,nan,1,4,nan,nan,1703,0.53066474,6.9944839,123.43384,264.84009,nan,nan,nan,nan,nan,nan
1980-12-27 03:22:51,-1,nan,nan,nan,nan,2,4,nan,nan,1703,0.53068244,6.9943781,123.41235,264.84204,nan,nan,nan,nan,nan,nan
1980-12-27 03:24:12,-1,nan,nan,nan,nan,2,4,nan,nan,1703,0.53070021,6.9942722,123.40259,264.84399,nan,nan,nan,nan,nan,nan
1980-12-27 03:25:34,1,13.04,-8.42,-0.36,1.19766,2,1,131107.0,392260.0,1703,0.53070903,6.9942188,123.38794,264.84497,39.2218,379.678,7.2104,-7.48539,46.5233,80.472
1980-12-27 03:26:55,1,14.125,-6.425,-1.0,0.434454,2,1,86168.8,324622.0,1703,0.53071791,6.9941664,123.3772,264.84595,28.8487,372.602,7.69548,-0.902124,37.7166,73.2061
1980-12-27 03:28:16,1,15.45,-3.225,0.5,0.865664,2,1,113962.0,219124.0,1703,0.53073567,6.9940605,123.36743,264.8479,28.0887,371.947,-2.40179,-22.7417,43.3748,60.1455
1980-12-27 03:29:37,1,10.325,-10.85,-4.65,2.48433,2,1,134966.0,245290.0,1703,0.53074449,6.9940071,123.35669,264.84888,39.8285,373.873,-13.9601,-8.83818,47.203,63.6352